STARLINK-34076

Last updated on Mon Jun 09 2025 00:02:04 GMT+0000 (Coordinated Universal Time)

1 63915U 25095AB 25158.80714957 -.00291969 00000+0 -58284-2 0 9993 2 63915 42.9984 288.9925 0002112 230.0388 130.0286 15.47116013 5739
UTC large
Height (km)
Speed (km/s)
/
Latitude / Longitude
Inclination (degrees)
Orbital Period (minutes)
Azimuth
Elevation
Range (km)
Doppler Factor

Next 0 passes for location: London (51.5072 / 0.1276)

Sorry there are no passes over London.